Location: St. Louis
(38.6270°N, 90.1994°W)
Time: 04:04:42
(UTC-05:00)

RS-15 - Pass Details

Date: 05 February 2022
Orbit: 1881 x 2163 km, 64.8° (Epoch: 20 May)

Event Time Altitude Azimuth Distance (km) Brightness Sun altitude
Rises 21:39:01 0° 315° (NW) 5,620 11.0 -48.9°
Reaches altitude 10° 21:43:55 10° 331° (NNW) 4,650 10.3 -49.8°
Enters shadow 21:52:26 22° 16° (NNE) 3,809 9.5 -51.3°
